EHI
0 0 0 0 0 0 0 0 0 0 0 0 0 0 0 0 0 0 2 7 11 11 8 7 7 5 2 0 0 0 0 0 0 0 0 0 0 0 0 0 0 0 0
1 0 0 0 0 0 0 0 0 0 0 0 0 0 0 0 0 0 1 5 10 12 10 9 9 6 4 1 0 0 0 0 0 0 0 0 0 0 0 0 0 0 0
2 1 0 0 0 0 0 0 0 0 0 0 0 0 0 0 0 0 0 2 6 10 12 12 11 9 7 5 3 2 1 1 0 0 0 0 0 0 0 0 0 0 0
5 3 1 0 0 0 0 0 0 0 0 0 0 0 0 0 0 0 0 0 2 5 9 12 13 12 11 9 8 7 5 3 1 0 0 0 0 0 0 0 0 0 0
7 4 2 1 1 0 0 0 0 0 0 0 0 0 0 0 0 0 0 0 0 1 4 8 11 13 13 13 13 12 11 8 4 2 1 0 0 0 0 0 0 0 0
8 6 4 4 3 2 0 0 0 0 0 0 0 0 0 0 0 0 0 0 0 0 1 2 5 9 12 13 14 15 15 13 10 6 4 2 1 0 0 0 0 0 0
9 8 6 5 5 4 1 0 1 1 0 0 0 0 0 0 0 0 0 0 0 0 0 0 1 3 6 9 11 14 17 17 15 12 8 5 2 0 0 0 0 0 0
10 10 8 6 5 4 3 2 1 1 0 0 0 0 0 0 0 0 0 0 0 0 0 0 0 0 1 3 5 9 13 15 16 14 11 7 3 1 1 1 0 0 0
12 11 10 8 5 4 4 3 2 1 0 0 0 0 0 0 0 0 0 0 0 0 0 0 1 1 1 1 2 4 6 10 12 12 11 8 5 3 2 1 0 0 0
10 11 11 10 7 5 4 3 1 0 0 0 0 0 0 0 0 0 0 0 0 0 0 0 0 1 1 2 2 1 2 4 5 6 8 10 9 6 3 1 0 0 0
7 9 10 8 6 5 4 2 1 0 0 0 0 0 0 0 0 0 0 0 0 0 0 0 0 0 1 2 2 2 1 0 1 2 4 8 9 7 4 2 1 0 0
7 9 8 6 5 4 3 3 2 1 0 0 0 0 0 0 0 0 0 0 0 0 0 0 0 0 0 1 1 1 1 0 0 0 1 3 5 5 4 5 4 2 1
8 8 7 5 3 3 3 3 3 2 1 0 0 0 0 0 0 0 0 0 0 0 0 0 0 0 0 0 0 0 0 0 0 0 0 1 1 1 2 4 5 3 2
7 7 6 5 4 4 4 4 3 2 1 1 0 0 0 0 0 0 0 0 0 0 0 0 0 0 0 0 0 0 0 0 0 0 0 0 0 0 0 1 2 2 2
5 6 5 4 4 4 4 4 3 3 3 3 2 0 0 0 0 0 0 0 0 0 0 0 0 0 0 0 0 0 0 0 0 0 0 0 0 0 0 0 0 1 1
4 5 4 2 2 3 4 4 4 4 5 5 3 2 1 0 0 0 0 0 0 0 0 0 0 0 0 0 0 0 0 0 0 0 0 0 0 0 0 0 0 0 0
4 4 2 1 2 3 4 4 4 5 4 4 4 3 2 1 0 0 0 0 0 0 0 0 0 0 0 0 0 0 0 0 0 0 0 0 0 0 0 0 0 0 0
5 4 3 3 4 4 5 4 4 4 3 3 3 3 3 2 1 0 0 0 0 0 0 0 0 0 0 0 0 0 0 0 0 0 0 0 0 0 0 0 0 0 0
5 4 4 5 5 5 5 4 3 3 3 3 3 3 3 3 1 1 0 0 0 0 0 0 0 0 0 0 0 0 0 0 0 0 0 0 0 0 0 0 0 0 0
5 4 3 4 5 5 4 3 3 3 3 3 3 3 3 3 3 2 1 0 0 0 0 0 0 0 0 0 0 0 0 0 0 0 0 0 0 0 0 0 0 0 0
5 4 3 3 4 4 4 3 3 3 3 3 3 3 3 3 3 2 1 0 0 0 0 0 0 0 0 0 0 0 0 0 0 0 0 0 0 0 0 0 0 0 0
4 4 5 5 5 5 4 3 2 2 2 2 3 3 3 2 2 1 0 0 0 0 0 0 0 0 0 0 0 0 0 0 0 0 0 0 0 0 0 0 0 0 0
5 6 6 6 6 6 4 2 1 1 1 1 1 2 2 1 1 0 0 0 0 0 0 0 0 0 0 0 0 0 0 0 0 0 0 0 0 0 0 0 0 0 0
7 7 6 6 6 6 4 1 0 0 0 0 1 2 2 1 1 0 0 0 0 0 0 0 0 0 0 0 0 0 0 0 0 0 0 0 0 0 0 0 0 0 0
7 7 6 6 6 5 3 1 0 1 1 1 1 2 2 2 1 0 0 0 0 0 0 0 0 0 0 0 0 0 0 0 0 0 0 0 0 0 0 0 0 0 0
8 7 6 5 4 4 2 0 1 2 2 2 2 2 2 1 1 0 0 0 0 0 0 0 0 0 0 0 0 0 0 0 0 0 0 0 0 0 0 0 0 0 0
Wind_Speed
4 3 2 2 2 2 2 2 2 2 1 1 1 3 4 5 5 4 4 12 12 11 12 12 11 11 10 10 9 9 9 9 8 8 8 8 8 7 8 8 7 7 6
4 4 3 3 3 3 3 2 2 2 1 1 1 2 4 4 5 5 4 7 12 12 12 12 12 12 11 11 11 10 10 10 9 9 9 8 8 8 8 8 8 8 7
5 4 3 3 3 3 3 2 1 1 1 1 1 1 3 4 5 6 5 4 6 11 13 13 13 13 13 13 12 12 11 10 10 10 10 10 9 9 9 9 9 9 8
6 4 3 3 3 2 2 2 1 1 1 1 1 1 1 2 4 5 5 5 5 5 9 14 14 13 14 14 14 13 12 12 12 11 11 11 11 11 10 10 10 10 9
5 4 3 3 3 2 2 2 2 2 1 1 2 2 2 2 4 5 5 6 6 6 5 9 14 14 15 15 15 14 14 14 13 13 13 13 13 12 11 11 11 11 11
5 4 3 3 3 2 2 2 2 1 2 2 2 2 2 3 3 4 5 5 6 7 7 7 6 9 15 15 15 15 16 15 15 15 15 15 14 13 13 12 12 12 12
5 5 3 3 3 3 3 3 2 2 1 1 1 2 3 3 3 3 3 3 5 6 6 7 5 5 5 12 14 15 16 16 15 15 15 15 15 14 13 13 13 13 12
5 5 5 3 3 3 3 3 2 2 1 1 2 1 2 4 3 3 2 3 4 3 5 7 6 6 5 4 7 13 14 15 15 15 15 14 14 14 14 14 14 14 14
5 4 5 4 4 4 3 3 3 3 2 2 2 3 2 3 3 3 2 2 2 2 3 3 5 5 6 4 4 8 12 12 13 14 14 14 13 13 13 14 14 15 15
5 5 5 5 4 3 4 4 4 3 3 2 2 2 3 3 2 3 3 2 2 2 3 3 4 4 5 4 5 7 9 11 12 13 13 13 13 13 13 13 13 13 13
5 5 5 4 4 4 4 4 3 3 3 3 3 2 2 2 2 2 3 3 2 2 2 2 2 3 4 4 4 4 7 9 10 11 11 11 11 11 12 12 13 13 12
3 4 4 4 4 4 4 4 4 4 3 3 3 3 3 2 3 3 3 3 3 2 1 1 2 2 2 2 4 4 4 4 5 7 8 8 8 8 9 10 11 11 11
3 4 4 4 4 4 4 4 3 4 4 4 4 3 3 3 3 3 3 2 2 2 1 1 2 1 2 2 2 4 4 4 4 4 4 5 5 6 6 7 8 9 9
4 4 5 5 4 4 4 3 3 4 3 4 4 4 2 3 2 3 3 2 2 2 1 2 1 1 1 1 2 3 2 3 4 4 4 4 4 4 4 5 5 5 5
4 4 5 4 4 4 4 3 3 3 3 3 3 3 2 2 2 2 2 2 3 2 2 2 1 1 1 1 1 1 1 2 3 4 4 4 4 3 3 3 2 2 2
3 3 3 4 4 4 3 3 2 2 2 2 2 2 3 2 2 1 2 2 2 3 2 1 1 2 1 1 1 1 1 1 1 2 3 3 3 3 3 2 2 2 1
3 3 3 3 3 3 2 2 2 1 1 1 1 1 1 1 1 1 1 1 1 2 2 2 1 2 2 2 2 1 1 1 1 2 1 1 2 2 2 2 2 2 1
2 2 3 3 3 2 2 2 2 1 1 1 0 0 1 0 1 0 0 0 0 1 2 1 1 2 2 1 1 1 2 2 2 5 5 3 3 3 3 3 3 3 3
2 2 2 3 2 2 2 2 2 1 1 1 1 1 0 1 1 1 1 1 1 1 1 1 0 1 1 1 2 2 3 2 3 4 6 6 6 5 4 4 3 3 3
3 3 3 3 3 2 2 1 2 2 2 2 2 2 2 2 1 1 2 2 2 3 2 2 1 1 1 1 2 2 2 2 3 4 4 5 6 6 6 5 4 3 2
4 4 4 3 3 3 2 2 2 2 3 3 3 3 4 5 5 3 3 2 3 3 2 2 2 1 1 1 1 1 1 1 2 3 2 3 3 3 4 4 5 4 3
4 4 4 4 4 3 4 5 4 3 4 4 4 4 5 7 9 10 9 7 5 4 3 2 1 1 1 1 1 1 1 2 2 2 2 2 2 3 3 2 4 6 5
5 5 5 5 4 4 6 6 7 5 5 4 4 4 4 5 6 6 8 10 9 9 7 4 3 1 0 1 1 2 2 2 1 1 1 2 2 2 2 3 5 5 6
5 5 5 4 4 5 6 7 8 6 6 5 5 5 5 4 5 5 6 7 6 5 5 4 3 1 1 1 1 2 2 2 2 2 2 1 2 2 2 3 5 6 6
6 5 4 4 4 4 6 7 7 5 5 6 5 6 5 5 7 7 7 6 6 5 7 9 8 7 8 7 4 3 3 3 2 2 2 2 1 1 2 2 4 6 6
6 5 5 5 5 4 6 7 6 4 5 5 5 5 8 7 8 7 6 5 5 3 4 5 6 7 6 7 8 4 2 2 2 1 3 2 1 1 2 2 2 3 3
Wind_Direction
164 167 174 183 195 187 189 210 233 245 250 270 172 158 156 157 162 169 178 181 181 182 183 184 184 185 186 188 191 191 190 188 186 186 187 187 187 187 186 185 185 183 183
166 167 171 182 194 194 193 198 209 207 209 209 178 168 174 166 175 176 183 189 191 192 195 194 194 195 197 198 200 200 202 200 198 197 199 200 200 201 200 200 198 198 198
168 169 172 184 199 197 189 189 203 172 201 234 240 192 179 187 185 186 187 193 199 203 203 204 204 205 206 206 207 207 209 210 208 208 208 207 208 209 209 209 208 207 206
172 167 173 191 194 177 177 176 176 159 219 236 242 241 210 199 201 200 197 198 200 206 212 212 212 212 213 215 215 214 216 217 216 215 215 216 216 216 215 216 216 216 215
170 166 177 195 185 169 184 200 178 169 196 235 237 233 234 226 217 213 208 207 208 208 209 217 219 219 221 222 222 221 220 220 221 221 222 223 224 222 221 221 221 221 221
175 168 179 194 179 166 184 193 183 187 195 218 256 269 259 246 232 224 218 212 212 214 211 214 217 227 229 229 228 228 226 226 224 225 226 227 227 227 225 226 226 226 226
181 174 182 185 175 176 188 183 177 194 219 184 65 324 310 280 250 240 227 213 213 213 208 212 212 218 234 236 234 232 232 231 228 227 228 227 229 229 227 228 229 230 230
188 186 180 187 188 184 192 191 176 174 230 172 150 118 327 327 308 261 243 221 217 212 218 220 214 216 228 231 235 235 236 236 235 233 232 232 231 231 230 230 231 231 232
195 194 190 189 196 188 195 201 188 178 207 238 176 158 175 244 296 309 278 246 227 217 228 221 218 222 226 230 239 242 239 237 239 239 234 231 232 232 232 232 233 234 234
200 200 197 195 196 196 199 209 198 188 184 225 241 209 192 179 191 296 311 290 257 237 228 230 226 221 222 226 230 236 238 236 238 241 240 236 233 232 231 233 236 236 237
206 204 199 196 197 199 206 213 205 200 193 202 211 216 223 212 193 197 271 295 301 263 228 227 231 225 226 225 223 231 238 240 239 239 239 238 236 234 233 236 238 240 240
206 207 200 199 203 203 206 210 212 212 212 212 214 204 195 199 208 199 230 258 270 275 270 244 231 228 226 225 227 216 222 233 236 238 239 241 240 239 238 239 240 243 246
208 216 212 207 209 212 214 210 214 224 217 218 221 220 216 216 203 195 209 242 256 277 287 270 246 245 238 233 232 210 213 213 216 222 230 239 245 248 247 245 246 248 250
213 212 211 213 216 212 218 209 218 228 225 226 233 226 224 230 213 201 196 198 253 288 285 271 297 255 251 240 225 219 221 200 200 204 206 217 231 241 245 244 244 241 244
209 207 208 213 216 213 212 204 219 233 226 223 227 227 230 235 224 219 201 187 188 236 271 272 285 290 265 241 220 208 218 182 193 207 207 206 211 217 221 220 217 211 219
202 190 202 207 209 208 200 191 201 215 196 219 215 222 236 238 222 216 213 204 188 195 238 269 271 294 317 13 53 55 55 99 178 215 211 203 197 195 190 178 175 178 188
184 184 193 195 192 192 184 170 185 183 177 223 239 202 232 209 194 231 228 209 193 170 212 277 325 338 6 38 27 28 30 19 34 48 72 161 170 159 141 140 146 138 119
172 174 170 164 166 163 157 162 173 179 176 184 234 144 237 133 85 42 48 97 165 157 171 208 334 2 21 28 32 34 34 51 50 57 57 63 79 88 92 101 102 102 98
127 120 124 124 128 132 131 145 150 148 137 135 124 104 74 93 88 74 85 81 84 84 106 131 356 9 14 23 33 37 47 39 50 63 63 65 69 70 73 77 85 92 95
106 98 99 110 122 124 121 128 132 132 107 91 85 87 82 87 111 118 95 93 98 90 85 90 71 32 18 1 46 47 34 24 39 45 47 57 60 59 57 59 64 70 78
100 97 95 93 100 107 105 115 122 126 110 89 67 60 67 73 72 77 85 91 102 100 94 93 81 57 33 33 24 359 47 28 34 42 40 36 40 37 30 40 49 55 66
90 85 83 84 79 82 85 94 103 97 93 92 82 68 67 65 67 68 69 70 81 100 106 98 84 75 4 345 4 58 85 58 23 1 40 18 29 27 12 24 35 44 44
92 85 80 81 78 70 75 89 98 95 90 89 89 84 77 67 63 72 67 62 59 65 83 110 100 83 283 297 88 76 75 72 70 315 55 19 8 13 360 24 31 32 32
93 88 82 80 81 72 82 92 93 87 86 84 81 84 88 73 67 76 78 66 56 50 58 74 94 67 48 39 99 121 119 84 47 23 48 47 354 354 357 6 15 22 23
90 85 83 79 81 72 79 89 96 91 85 76 72 75 84 81 70 78 83 77 62 45 51 57 57 52 51 54 68 73 58 68 41 355 10 57 6 1 358 357 4 15 17
94 89 77 70 73 72 78 85 96 97 91 82 70 62 67 77 73 73 83 86 77 51 42 39 38 34 37 41 49 64 85 88 78 7 344 30 13 36 18 342 347 355 2